Wind_Speed
4 3 3 2 3 3 3 5 6 5 4 2 2 3 4 5 7 9 10 11 13 14 15 17 18 19 21 22 23 24 25 26 28 29 29 30 31 31 32 33 34 35 37 38 40 42 44 45 46
5 4 4 3 2 2 1 0 1 1 3 4 5 6 8 9 11 12 13 14 15 17 18 20 21 23 24 26 28 29 30 32 33 34 35 35 36 36 36 37 37 37 38 39 40 41 43 45 47
6 6 5 5 5 6 5 5 6 6 7 8 9 10 10 11 12 13 15 17 18 20 22 24 26 28 29 31 33 34 36 37 38 39 40 41 42 43 43 43 43 43 43 42 42 42 43 44 46
8 8 8 8 8 9 8 9 9 10 10 10 10 10 11 12 14 16 17 19 21 23 25 28 30 32 34 35 37 39 40 42 43 45 46 47 48 49 49 49 50 50 49 49 48 47 47 46 47
11 10 10 10 10 10 10 10 10 10 10 9 10 11 13 15 17 18 21 23 25 27 29 32 34 36 38 40 42 44 45 47 48 50 51 52 53 54 55 55 56 56 55 55 55 54 53 52 51
11 11 11 10 10 10 10 10 9 9 9 10 11 13 15 18 20 22 24 27 29 31 33 36 38 41 43 45 47 48 50 52 54 55 57 58 59 60 61 61 61 61 61 61 60 60 59 58 57
12 12 11 11 11 10 9 9 9 9 10 12 14 16 18 21 23 25 28 30 32 35 37 40 43 45 47 49 51 53 55 57 59 60 62 63 65 66 67 68 68 68 68 67 66 65 65 64 63
12 12 11 10 9 8 8 9 10 12 13 16 17 19 22 24 27 29 31 33 36 39 41 44 46 49 51 54 56 58 60 62 64 66 68 69 70 72 73 74 74 75 75 74 74 73 71 69 68
11 10 9 8 7 7 9 11 13 16 18 20 22 24 26 28 30 32 34 37 39 42 45 48 50 53 56 58 61 63 66 68 70 72 73 75 76 77 78 79 80 81 81 81 80 79 78 76 74
8 7 6 6 7 9 12 14 17 19 21 23 25 27 29 31 33 35 37 40 42 45 48 51 54 57 59 62 64 67 69 72 74 76 78 79 81 82 83 83 84 85 86 86 86 86 85 83 81
6 5 7 9 11 14 16 19 21 23 25 26 28 30 32 33 35 37 40 42 45 48 51 54 57 60 62 65 68 70 73 76 78 80 82 84 85 86 87 88 89 89 90 90 91 91 90 89 87
5 7 10 13 15 18 20 23 25 26 27 29 31 32 33 35 38 40 42 45 48 51 54 57 60 63 66 68 71 74 77 79 82 84 86 87 88 89 90 91 92 92 92 93 94 94 94 94 94
8 11 14 17 19 22 24 26 27 29 30 31 32 33 35 37 40 42 44 47 50 53 56 59 63 66 69 72 75 78 81 83 85 87 88 89 90 91 91 91 90 89 89 89 90 91 92 94 95
13 15 18 20 22 24 25 27 28 29 30 31 32 34 36 39 41 44 46 49 52 55 59 62 66 69 73 77 80 82 85 87 88 89 90 90 89 88 86 83 81 79 79 79 80 81 83 85 88
17 19 21 23 24 25 26 26 27 28 29 30 31 34 37 40 43 45 48 51 54 58 62 66 70 74 78 81 84 86 88 89 90 89 87 85 83 80 77 75 73 72 72 71 72 72 74 76 79
20 22 23 24 25 26 26 26 26 27 28 29 31 34 38 41 44 47 50 53 57 61 66 70 74 78 81 84 87 88 89 88 87 84 82 79 76 74 72 70 68 67 66 66 66 66 67 68 71
21 22 24 25 25 25 26 25 26 27 28 30 32 35 39 42 45 49 52 56 60 65 70 74 77 81 84 86 87 88 87 85 82 79 76 74 71 69 68 66 64 62 61 60 60 60 61 63 65
21 22 23 24 24 24 24 25 26 28 29 31 34 37 40 44 47 51 55 59 64 69 73 77 80 83 85 86 86 85 83 80 77 75 73 70 68 65 63 61 58 56 54 53 52 53 54 56 59
21 22 22 23 23 23 24 24 26 28 30 33 36 39 43 46 50 54 58 63 68 72 75 79 81 83 85 85 84 82 79 76 74 72 69 67 64 62 59 57 54 52 50 49 48 47 47 49 52
21 21 22 22 22 23 23 24 27 29 32 35 38 42 45 49 53 57 61 66 70 73 77 80 82 84 85 84 83 80 76 74 71 69 67 64 62 59 56 54 52 50 47 46 45 45 43 44 46
20 20 21 22 22 23 24 24 28 31 34 37 40 44 48 51 55 59 64 68 71 74 77 80 82 84 84 82 80 76 73 70 68 65 63 61 59 57 55 53 51 49 47 45 43 42 41 40 42
20 20 21 22 23 24 27 27 29 33 36 39 43 46 50 54 57 61 65 69 72 75 78 81 82 83 82 80 77 74 71 69 66 64 61 59 58 57 55 53 51 49 47 46 44 42 41 40 39
20 20 21 22 23 24 27 30 32 36 38 42 45 48 52 55 59 63 66 70 73 75 78 81 82 82 80 77 74 72 70 67 65 62 60 58 57 56 55 54 53 51 49 48 46 45 43 41 39
20 20 21 22 23 25 28 32 35 38 40 44 47 50 53 57 60 64 67 70 73 76 78 80 81 80 77 74 72 70 68 66 63 60 58 57 56 56 56 55 54 52 51 50 49 48 46 43 41
21 22 23 24 25 28 31 33 37 39 42 45 48 51 54 57 61 64 67 70 73 76 78 79 79 77 75 72 71 69 67 65 62 60 58 58 58 57 57 56 55 54 53 52 50 49 48 46 43
22 23 25 27 28 28 31 34 37 40 43 46 49 52 55 58 62 65 67 70 73 75 77 78 78 75 73 70 68 67 65 63 61 60 60 61 60 60 59 57 55 54 52 51 49 48 48 47 45
22 24 26 28 30 31 33 36 38 42 44 47 49 52 55 59 62 65 68 70 72 75 76 77 76 73 71 69 67 65 64 62 61 60 61 62 62 61 61 59 57 55 52 48 44 42 43 44 44
23 25 27 30 33 36 36 37 40 42 45 47 50 53 56 59 62 65 68 70 72 74 75 75 74 71 69 67 65 64 62 62 61 61 62 62 63 63 62 61 58 54 49 44 39 36 37 38 41
24 26 28 29 32 36 39 37 41 43 45 47 50 53 56 59 62 65 67 69 71 73 74 74 72 69 67 65 63 62 61 61 61 61 63 63 64 64 63 60 56 52 47 41 35 30 28 30 34
26 27 29 31 32 34 38 38 42 43 45 47 50 53 56 59 62 65 67 69 71 72 73 72 70 67 65 63 62 61 61 61 61 61 63 64 65 65 63 60 55 50 46 42 35 27 21 20 25
Wind_Direction
120 139 162 170 194 217 245 262 265 261 258 286 336 357 358 351 346 340 337 336 335 332 328 325 321 318 315 312 309 306 304 301 299 297 295 293 290 288 285 282 279 275 272 269 265 263 261 259 257
121 128 126 123 125 115 124 2 314 44 38 31 27 19 13 8 4 358 351 347 340 334 328 323 319 315 311 308 305 303 301 298 297 295 293 291 290 288 286 284 281 278 276 273 269 266 263 260 258
106 103 96 87 82 82 78 71 64 54 44 36 28 20 14 8 1 352 344 338 331 325 320 316 313 310 307 305 303 301 299 298 296 294 293 291 289 287 285 283 282 280 278 275 273 270 267 263 260
93 91 85 79 74 70 68 63 57 51 45 37 25 13 2 354 345 338 332 325 320 316 313 310 308 306 304 303 301 300 298 297 296 294 293 291 289 287 285 283 281 279 277 276 274 272 269 266 263
89 85 80 76 74 71 69 65 60 52 41 25 8 354 344 338 333 327 321 317 314 312 310 309 307 306 305 303 302 301 300 299 297 295 294 292 290 288 286 284 281 279 277 275 274 272 270 267 265
88 83 81 78 75 72 68 60 49 34 16 0 347 337 331 326 322 317 314 313 312 311 310 309 308 307 306 305 304 302 301 300 298 296 295 293 291 289 287 285 283 280 278 276 273 271 269 267 265
92 88 84 79 73 63 51 36 21 5 351 341 333 325 320 317 315 313 312 312 312 311 311 310 309 308 307 306 304 303 301 300 299 297 296 294 292 290 288 286 284 282 279 277 274 271 269 267 265
91 88 83 73 59 42 22 6 354 343 334 328 323 317 314 313 312 312 312 312 312 312 311 311 310 309 308 307 306 305 303 302 300 298 296 294 292 290 288 286 284 282 280 277 275 272 269 267 264
90 85 74 57 35 11 354 341 334 329 324 321 317 314 312 312 312 313 313 313 313 313 312 312 311 311 309 308 307 305 304 302 300 299 297 295 293 290 288 286 284 282 279 277 275 272 270 267 264
83 69 47 20 358 342 334 329 325 322 320 317 315 313 313 313 313 314 314 314 314 314 314 313 312 310 309 307 306 304 303 301 300 298 296 294 292 290 288 286 283 281 279 276 274 271 269 266 264
54 26 1 346 336 330 325 323 321 320 318 316 315 314 314 314 315 315 316 316 315 315 314 313 311 309 308 307 305 303 302 301 299 297 296 294 292 290 288 286 284 281 279 276 273 270 267 265 262
3 346 336 330 327 324 321 320 320 320 319 318 317 316 316 316 317 317 317 317 316 315 313 311 310 309 307 306 305 304 303 301 300 299 297 295 294 292 290 288 285 282 279 277 274 271 268 265 262
326 323 322 321 321 320 319 319 319 319 319 318 318 317 317 317 318 318 317 317 315 313 312 310 310 309 309 308 307 306 305 305 304 302 300 299 297 295 293 290 288 285 282 278 275 271 268 265 262
315 315 316 317 317 317 317 318 318 318 318 318 318 318 318 318 317 317 317 316 315 313 313 313 313 313 312 312 311 310 310 309 308 306 305 303 301 299 296 293 290 287 283 279 275 271 267 264 260
311 311 313 315 316 317 317 318 318 317 317 318 319 318 317 317 317 317 317 317 316 316 316 317 317 317 316 316 315 314 313 312 311 309 308 306 304 302 299 296 293 289 285 281 276 272 267 262 258
311 312 315 317 318 318 319 319 319 319 319 319 319 318 317 317 318 318 318 318 318 319 320 320 320 320 319 319 318 317 316 314 313 312 311 309 307 305 302 299 296 292 288 283 278 273 268 263 258
314 316 318 320 320 320 320 321 321 320 321 321 320 319 318 318 319 320 321 321 322 323 323 323 323 322 321 321 320 319 318 317 316 315 314 312 310 308 306 303 299 295 291 287 281 276 270 264 259
318 319 320 320 320 320 321 323 323 322 323 322 321 321 320 321 322 323 324 325 326 326 326 325 325 324 323 322 322 321 320 320 319 318 317 315 313 312 310 307 304 300 295 290 285 280 275 268 260
321 321 321 321 322 324 325 326 324 324 324 324 323 323 324 325 326 327 328 328 328 328 327 327 326 325 324 323 323 322 322 323 322 321 320 318 317 315 313 310 307 303 298 293 288 284 279 273 265
324 323 324 324 326 327 329 330 325 327 327 327 326 327 327 328 329 330 330 330 330 329 329 328 326 325 325 325 325 325 326 325 325 324 323 321 319 316 314 311 308 304 300 295 291 286 282 277 270
326 327 328 329 331 330 331 333 328 329 329 329 329 330 330 331 332 332 332 331 331 330 330 328 327 327 327 327 328 328 328 327 327 326 324 322 320 318 316 313 310 306 302 297 293 288 283 279 274
331 331 331 332 333 333 332 334 331 333 332 332 332 333 333 333 334 333 333 332 332 331 331 329 329 329 329 330 330 330 330 330 329 328 326 325 322 320 318 315 311 307 302 297 292 288 284 279 274
334 334 334 334 335 334 332 334 335 335 335 334 334 335 335 335 335 334 333 333 333 333 332 331 330 331 332 332 332 332 332 332 332 331 329 327 325 322 319 315 311 306 301 296 290 286 282 278 274
337 336 336 335 336 337 337 337 336 337 336 336 336 337 336 336 335 334 334 335 334 334 333 332 332 333 334 334 334 334 335 334 334 333 332 330 327 324 321 317 312 307 301 295 289 283 278 275 271
339 338 338 340 342 342 340 339 337 337 337 338 338 338 337 336 335 336 336 336 335 335 334 334 334 335 335 336 336 336 337 336 336 335 334 333 331 328 324 320 315 309 303 296 288 281 274 270 267
343 341 341 341 343 344 341 340 338 339 340 340 339 338 337 336 337 337 337 337 337 336 336 336 336 336 337 337 338 339 339 339 338 338 337 336 334 332 329 326 321 316 309 301 291 281 272 265 261
347 345 343 341 342 345 346 342 342 343 341 340 339 338 338 338 338 338 338 338 338 337 337 337 337 338 339 339 340 341 341 341 341 341 341 340 338 336 334 331 327 323 317 309 297 284 272 263 257
352 348 346 345 343 344 348 343 344 343 341 340 339 339 339 339 339 339 339 339 339 339 339 339 339 340 341 342 343 343 344 344 344 344 344 343 342 340 339 337 334 332 328 320 308 292 276 262 253
356 352 349 346 345 343 345 346 343 343 342 340 340 340 340 340 341 341 341 341 341 340 340 341 341 342 343 344 345 345 346 347 347 347 347 346 345 345 344 344 343 343 341 336 325 308 287 266 251
360 355 351 347 346 344 344 345 343 343 341 341 341 341 341 341 342 342 342 342 342 342 342 342 343 344 345 346 346 347 349 350 350 350 350 350 350 349 350 350 350 351 350 348 344 332 309 274 250
Height
5864 5864 5866 5867 5868 5868 5867 5869 5868 5868 5869 5869 5869 5869 5868 5868 5868 5870 5867 5864 5863 5862 5861 5860 5858 5857 5855 5853 5851 5849 5847 5845 5843 5841 5839 5838 5836 5834 5833 5832 5831 5830 5830 5830 5830 5830 5831 5832 5834
5865 5866 5868 5868 5867 5868 5869 5869 5870 5870 5870 5869 5869 5869 5868 5867 5867 5866 5865 5863 5862 5861 5859 5857 5856 5854 5852 5849 5847 5845 5842 5840 5838 5836 5833 5831 5829 5827 5826 5824 5823 5822 5822 5821 5821 5821 5822 5822 5824
5867 5868 5869 5869 5868 5870 5870 5870 5871 5871 5871 5870 5869 5869 5868 5867 5866 5865 5863 5862 5860 5859 5857 5854 5852 5850 5847 5844 5842 5839 5836 5834 5831 5829 5826 5823 5821 5819 5818 5816 5814 5813 5813 5812 5812 5812 5812 5813 5813
5870 5871 5871 5871 5871 5872 5872 5872 5872 5872 5871 5870 5870 5869 5867 5866 5865 5864 5862 5860 5858 5856 5853 5851 5848 5845 5841 5838 5835 5832 5829 5826 5823 5820 5817 5814 5811 5809 5807 5805 5804 5803 5802 5801 5801 5801 5802 5802 5803
5872 5873 5873 5872 5873 5873 5873 5873 5873 5873 5872 5871 5869 5868 5866 5865 5863 5861 5859 5857 5854 5852 5849 5845 5842 5838 5835 5831 5827 5824 5820 5817 5813 5809 5806 5803 5799 5797 5794 5792 5791 5790 5789 5789 5788 5788 5789 5790 5791
5875 5875 5875 5875 5875 5875 5875 5875 5874 5873 5872 5870 5869 5867 5865 5863 5861 5859 5856 5853 5850 5847 5843 5839 5835 5831 5827 5823 5818 5814 5810 5806 5802 5797 5793 5789 5786 5782 5779 5777 5775 5774 5773 5773 5773 5773 5774 5776 5777
5877 5877 5877 5877 5877 5877 5876 5875 5874 5873 5871 5870 5868 5865 5863 5860 5858 5855 5852 5849 5845 5841 5837 5832 5828 5823 5818 5814 5809 5804 5799 5794 5789 5784 5779 5775 5770 5766 5762 5759 5757 5755 5754 5754 5755 5755 5757 5759 5761
5879 5880 5879 5879 5879 5878 5877 5875 5874 5872 5870 5868 5866 5863 5860 5858 5854 5851 5848 5844 5840 5835 5831 5826 5821 5815 5810 5804 5798 5792 5786 5780 5775 5769 5763 5758 5753 5748 5744 5740 5737 5735 5734 5733 5733 5734 5737 5739 5741
5882 5883 5881 5881 5880 5879 5877 5875 5873 5871 5869 5866 5863 5861 5857 5854 5850 5847 5843 5839 5834 5829 5824 5818 5812 5806 5800 5793 5786 5779 5773 5766 5759 5753 5746 5740 5734 5729 5724 5719 5716 5713 5711 5710 5710 5711 5713 5716 5720
5884 5884 5883 5882 5881 5879 5877 5875 5873 5870 5867 5864 5860 5857 5853 5850 5846 5842 5838 5833 5828 5822 5816 5810 5803 5797 5790 5783 5775 5768 5760 5752 5744 5736 5728 5721 5714 5708 5702 5697 5692 5689 5686 5685 5684 5685 5688 5691 5695
5885 5884 5883 5882 5880 5878 5876 5874 5871 5868 5865 5861 5857 5853 5849 5845 5841 5837 5832 5827 5821 5815 5808 5801 5794 5787 5779 5772 5763 5755 5745 5736 5727 5718 5709 5700 5692 5684 5677 5671 5666 5661 5658 5656 5656 5657 5659 5663 5667
5885 5884 5882 5881 5879 5876 5874 5871 5868 5865 5861 5857 5853 5849 5845 5840 5836 5831 5826 5820 5814 5807 5800 5793 5785 5776 5768 5759 5749 5739 5729 5718 5708 5697 5687 5677 5668 5659 5650 5643 5637 5631 5628 5626 5625 5625 5628 5631 5637
5885 5883 5881 5879 5877 5874 5871 5868 5865 5861 5857 5852 5848 5844 5839 5835 5830 5824 5819 5813 5807 5800 5792 5783 5774 5765 5755 5744 5732 5721 5709 5697 5685 5673 5661 5650 5640 5631 5622 5613 5606 5600 5596 5593 5592 5592 5595 5598 5603
5884 5882 5880 5877 5875 5872 5868 5865 5862 5857 5853 5848 5844 5839 5834 5829 5824 5819 5813 5806 5799 5791 5782 5773 5762 5751 5739 5727 5714 5700 5687 5673 5660 5647 5634 5623 5611 5602 5593 5585 5578 5571 5566 5562 5561 5561 5563 5565 5570
5882 5880 5878 5875 5872 5868 5866 5862 5858 5854 5849 5845 5840 5835 5830 5824 5818 5813 5806 5799 5791 5781 5771 5760 5748 5735 5721 5707 5693 5679 5664 5650 5636 5623 5610 5598 5586 5576 5567 5559 5552 5546 5541 5536 5534 5533 5533 5536 5539
5880 5878 5875 5872 5868 5864 5863 5859 5854 5850 5845 5841 5836 5831 5825 5819 5813 5806 5799 5791 5781 5771 5759 5746 5733 5718 5704 5688 5673 5658 5643 5629 5615 5601 5589 5576 5565 5555 5545 5537 5529 5522 5517 5512 5509 5508 5508 5509 5512
5877 5874 5871 5868 5864 5861 5858 5854 5850 5846 5841 5837 5832 5826 5820 5814 5807 5799 5791 5781 5770 5759 5746 5733 5718 5703 5687 5671 5655 5639 5624 5609 5595 5581 5569 5557 5546 5535 5526 5517 5509 5502 5496 5490 5487 5485 5484 5485 5487
5874 5871 5868 5865 5862 5858 5854 5851 5846 5842 5838 5833 5827 5821 5815 5808 5800 5791 5781 5770 5759 5746 5733 5719 5704 5688 5672 5656 5640 5623 5607 5591 5577 5564 5551 5539 5528 5518 5508 5499 5490 5483 5477 5472 5468 5465 5463 5462 5465
5871 5868 5865 5862 5858 5855 5851 5847 5842 5838 5833 5828 5822 5816 5809 5801 5792 5782 5771 5760 5748 5734 5720 5705 5690 5674 5658 5643 5626 5610 5594 5578 5563 5549 5535 5523 5512 5502 5493 5484 5475 5468 5462 5456 5452 5449 5447 5444 5444
5868 5865 5862 5859 5855 5851 5848 5844 5839 5834 5829 5823 5817 5810 5802 5793 5783 5773 5762 5750 5737 5724 5709 5693 5677 5661 5644 5627 5611 5594 5579 5564 5549 5535 5521 5509 5498 5488 5479 5470 5462 5454 5448 5442 5437 5433 5432 5429 5427
5866 5862 5859 5855 5852 5847 5844 5841 5835 5830 5824 5818 5811 5803 5795 5785 5775 5764 5753 5740 5727 5712 5697 5681 5665 5648 5630 5613 5597 5581 5567 5552 5538 5525 5512 5498 5486 5475 5465 5456 5448 5440 5434 5429 5424 5420 5417 5416 5413
5863 5859 5856 5852 5848 5844 5840 5837 5832 5826 5819 5813 5805 5797 5788 5778 5767 5756 5744 5731 5717 5702 5685 5669 5652 5634 5617 5600 5584 5569 5555 5541 5527 5513 5500 5487 5475 5463 5452 5443 5434 5427 5420 5414 5410 5406 5403 5402 5401
5860 5857 5853 5849 5845 5842 5837 5832 5829 5821 5814 5807 5799 5790 5781 5770 5759 5748 5735 5722 5707 5691 5675 5657 5639 5622 5604 5587 5572 5558 5543 5529 5516 5502 5490 5477 5464 5452 5440 5430 5420 5412 5404 5398 5394 5391 5388 5387 5387
5858 5855 5852 5848 5844 5840 5834 5828 5823 5816 5809 5802 5793 5784 5774 5763 5752 5740 5727 5712 5697 5681 5664 5646 5628 5611 5594 5578 5563 5548 5534 5520 5506 5493 5481 5468 5455 5442 5428 5417 5405 5395 5387 5381 5376 5373 5372 5371 5372
5856 5853 5849 5845 5841 5837 5830 5824 5820 5812 5804 5796 5787 5778 5767 5757 5745 5732 5719 5704 5688 5672 5654 5637 5619 5602 5586 5570 5554 5539 5525 5510 5497 5483 5471 5457 5444 5430 5416 5403 5390 5379 5369 5361 5356 5353 5353 5353 5355
5854 5850 5846 5842 5838 5834 5828 5822 5817 5808 5799 5790 5781 5772 5762 5750 5738 5725 5711 5696 5680 5663 5646 5629 5611 5595 5578 5563 5547 5532 5517 5502 5488 5474 5460 5446 5432 5417 5402 5388 5374 5361 5349 5340 5334 5331 5331 5334 5337
5853 5848 5844 5839 5835 5830 5825 5818 5811 5802 5794 5786 5776 5766 5756 5744 5732 5718 5704 5688 5672 5656 5638 5621 5604 5587 5571 5556 5540 5525 5510 5496 5481 5467 5452 5437 5421 5406 5390 5374 5359 5345 5331 5320 5313 5310 5310 5313 5318
5851 5847 5842 5836 5830 5825 5821 5813 5807 5798 5790 5781 5771 5761 5750 5738 5725 5711 5697 5681 5665 5648 5631 5613 5596 5580 5564 5548 5533 5519 5504 5490 5475 5460 5446 5430 5413 5397 5379 5363 5346 5330 5316 5304 5296 5292 5292 5295 5300
5850 5845 5839 5834 5828 5821 5815 5813 5803 5794 5785 5776 5766 5756 5744 5732 5719 5704 5690 5674 5658 5641 5624 5607 5590 5574 5558 5543 5528 5514 5500 5485 5470 5455 5440 5423 5407 5389 5371 5354 5336 5321 5307 5295 5285 5279 5277 5279 5284
5847 5843 5838 5833 5827 5819 5812 5810 5798 5790 5780 5771 5761 5750 5738 5726 5712 5698 5683 5668 5652 5635 5618 5601 5585 5569 5553 5539 5524 5510 5495 5481 5466 5451 5435 5419 5401 5383 5365 5348 5331 5316 5302 5289 5279 5272 5268 5268 5272